Flag for United Kingdom Weather past 2 weeks in Cambridge, England, United Kingdom

Now
55 °F

Passing clouds.


Feels Like: 54 °F
Forecast: 53 / 76 °F
Wind: 6 mph from Southwest

Location: Cambridge Airport

Current Time: Aug 1, 2015 at 8:50:50 AM

Latest Report: Aug 1, 2015 at 8:20 AM


Visibility: N/A

Pressure: 30.01 "Hg

Humidity: 77%

Dew point: 48 °F

Location of CambridgeLocation

Historic Weather in Cambridge — Graph

°F

Cambridge temperature yesterday

Maximum temperature yesterday: 70 °F (at 4:50 PM)
Minimum temperature yesterday: 50 °F (at 7:20 AM)
Average temperature yesterday: 64 °F

Past Weeks' High & Low Weather Summary

 TemperatureHumidityPressure
High100 °F (Jul 27, 11:50 AM)100% (Jul 24, 1:20 PM)30.12 "Hg (Jul 24, 1:20 PM)
Low41 °F (Jul 18, 7:50 PM)26% (Jul 21, 10:20 AM)29.39 "Hg (Jul 27, 6:20 AM)
Average63 °F66%29.84 "Hg
* Reported Jul 16 7:50 PM — Jul 31 7:50 PM, Cambridge, Weather by CustomWeather, © 2015

Note: Actual official high and low records may vary slightly from our data, if they occured in-between our weather recording intervals... More about our weather records

Advertising

Cambridge weather history for previous 24 hours

 ConditionsComfort  
Time TempWeatherWind HumidityBarometerVisibility
7:50 PM
Fri, Jul 31
64 °FPassing clouds.8 mph60%29.98 "HgN/A
6:50 PM68 °FPassing clouds.6 mph43%29.98 "HgN/A
6:20 PM68 °FPassing clouds.6 mph43%29.98 "HgN/A
5:50 PM68 °FPassing clouds.6 mph43%30.01 "HgN/A
5:20 PM70 °FPassing clouds.7 mph38%30.01 "HgN/A
4:50 PM70 °FPassing clouds.7 mph40%30.01 "HgN/A
4:20 PM68 °FPassing clouds.6 mph40%30.01 "HgN/A
3:50 PM68 °FScattered clouds.6 mph46%30.04 "HgN/A
3:20 PM68 °FScattered clouds.5 mph43%30.04 "HgN/A
2:50 PM68 °FScattered clouds.3 mph40%30.04 "HgN/A
2:20 PM68 °FScattered clouds.6 mph46%30.04 "HgN/A
1:50 PM66 °FScattered clouds.5 mph52%30.07 "HgN/A
1:20 PM66 °FScattered clouds.7 mph46%30.07 "HgN/A
12:50 PM66 °FScattered clouds.7 mph49%30.07 "HgN/A
12:20 PM64 °FScattered clouds.7 mph52%30.09 "HgN/A
11:50 AM64 °FScattered clouds.5 mph52%30.09 "HgN/A
11:20 AM63 °FScattered clouds.6 mph56%30.09 "HgN/A
10:50 AM63 °FScattered clouds.6 mph64%30.09 "HgN/A
10:20 AM63 °FPassing clouds.No wind59%30.09 "HgN/A
9:50 AM61 °FPassing clouds.No wind63%30.12 "HgN/A
9:20 AM59 °FPassing clouds.No wind63%30.12 "HgN/A
8:20 AM55 °FSunny.No wind72%30.12 "Hg10 mi
Weather by CustomWeather, © 2015

See weather overviewHow to use our weather pages